Terminal Aerodrome Forecast
Issued by NWS

Home | Current Version | Previous Version | Text Only | Print | Product List | Glossary On
Versions: 1 2 3 4 5 6 7 8 9 10 11 12 13 14 15 16 17 18 19 20 21 22 23 24 25 26 27 28 29 30 31 32 33 34 35 36 37 38 39 40 41 42 43 44 45 46 47 48 49 50
000
FTUS44 KHGX 200157 AAC
TAFIAH
TAF AMD
KIAH 200157Z 2002/2106 22007KT P6SM FEW060 BKN090
      TEMPO 2002/2003 -RA
     FM200300 VRB04KT P6SM FEW100 BKN250
     FM200800 34007KT P6SM SCT250
     FM201400 01013KT P6SM SCT250
     FM201800 02011KT P6SM BKN250
     FM210000 06005KT P6SM BKN250=

USA.gov is the U.S. government's official web portal to all federal, state and local government web resources and services.